This is the latest recevied weather packets stored in our database for station/object AA4OM-2. If no packets are shown the sender has not sent any weather packets the latest 10 day(s).
| Time | Temp. | Humidity | Pressure | Rain* | Wind** | Luminosity | Snow |
|---|---|---|---|---|---|---|---|
| 1777830645 | 18.33° C | 39% | 1020.9 hPa | 0 mm | - | 987 W/m² | - |
| 1777830342 | 18.33° C | 40% | 1021.1 hPa | 0 mm | - | 991 W/m² | - |
| 1777830038 | 18.33° C | 40% | 1021.3 hPa | 0 mm | - | 981 W/m² | - |
| 1777829733 | 18.33° C | 41% | 1021.3 hPa | 0 mm | - | 981 W/m² | - |
| 1777829429 | 17.78° C | 40% | 1021.3 hPa | 0 mm | - | 983 W/m² | - |
| 1777829128 | 17.78° C | 41% | 1021.5 hPa | 0 mm | - | 981 W/m² | - |
| 1777828825 | 18.33° C | 37% | 1021.4 hPa | 0 mm | - | 982 W/m² | - |
| 1777828521 | 17.78° C | 40% | 1021.6 hPa | 0 mm | - | 978 W/m² | - |
| 1777828218 | 17.78° C | 38% | 1021.8 hPa | 0 mm | - | 983 W/m² | - |
| 1777827914 | 18.33° C | 40% | 1021.8 hPa | 0 mm | - | 971 W/m² | - |
| 1777827612 | 18.33° C | 40% | 1022 hPa | 0 mm | - | 971 W/m² | - |
| 1777827309 | 17.78° C | 42% | 1022 hPa | 0 mm | - | 963 W/m² | - |
| 1777827005 | 17.22° C | 42% | 1021.9 hPa | 0 mm | - | 961 W/m² | - |
| 1777826702 | 17.78° C | 42% | 1022 hPa | 0 mm | - | 947 W/m² | - |
| 1777826399 | 17.78° C | 43% | 1022.4 hPa | 0 mm | - | 950 W/m² | - |
| 1777826096 | 17.78° C | 47% | 1022.3 hPa | 0 mm | - | 942 W/m² | - |
| 1777825793 | 17.22° C | 44% | 1022.2 hPa | 0 mm | - | 930 W/m² | - |
| 1777825490 | 17.22° C | 44% | 1022.4 hPa | 0 mm | - | 926 W/m² | - |
| 1777825187 | 17.22° C | 43% | 1022.1 hPa | 0 mm | - | 915 W/m² | - |
| 1777824884 | 16.67° C | 44% | 1022.5 hPa | 0 mm | - | 905 W/m² | - |
| 1777824580 | 16.67° C | 45% | 1022.6 hPa | 0 mm | - | 890 W/m² | - |
| 1777824277 | 16.67° C | 45% | 1022.6 hPa | 0 mm | - | 885 W/m² | - |
| 1777823973 | 16.67° C | 47% | 1022.6 hPa | 0 mm | - | 875 W/m² | - |
| 1777823670 | 16.11° C | 48% | 1022.5 hPa | 0 mm | - | 861 W/m² | - |
| 1777823366 | 16.67° C | 43% | 1022.5 hPa | 0 mm | - | 849 W/m² | - |
* Rain latest hour (hover to see other rain measurements)
** Current wind speed in m/s (hover to see current wind gust speed)